| time (UTC) | temp C | wind direction | speed KPH | gust KPH | rain 1hr cm | rain 24hr cm | rain mn cm | humidity % | barometer mb |
| 20260505053108 | 22 | 0 | 3.2 | 20.9 | 0.00 | 0.00 | 0.00 | 76 | 1005.2 |
| 20260505051601 | 22 | 0 | 1.6 | 16.1 | 0.00 | 0.00 | 0.00 | 76 | 1005.2 |
| 20260505041557 | 22 | 232 | 3.2 | 24.1 | 0.00 | 0.00 | 0.00 | 73 | 1005.4 |
| 20260505040056 | 22 | 218 | 3.2 | 19.3 | 0.00 | 0.00 | 0.00 | 73 | 1005.5 |
| 20260505034554 | 23 | 179 | 1.6 | 17.7 | 0.00 | 0.00 | 0.00 | 73 | 1005.5 |
| 20260505033052 | 23 | 196 | 3.2 | 22.5 | 0.00 | 0.00 | 0.00 | 72 | 1005.6 |
| 20260505031607 | 23 | 232 | 3.2 | 24.1 | 0.00 | 0.00 | 0.00 | 72 | 1005.6 |
| 20260505030053 | 23 | 164 | 3.2 | 25.7 | 0.00 | 0.00 | 0.00 | 71 | 1005.5 |
| 20260505024552 | 23 | 188 | 1.6 | 33.8 | 0.00 | 0.00 | 0.00 | 71 | 1005.8 |
| 20260505023108 | 23 | 213 | 0.0 | 17.7 | 0.00 | 0.00 | 0.00 | 71 | 1005.7 |
| 20260505021552 | 23 | 0 | 0.0 | 17.7 | 0.00 | 0.00 | 0.00 | 71 | 1005.6 |
| 20260505020054 | 23 | 190 | 0.0 | 11.3 | 0.00 | 0.00 | 0.00 | 71 | 1005.4 |
| 20260505014601 | 23 | 0 | 1.6 | 12.9 | 0.00 | 0.00 | 0.00 | 71 | 1005.4 |
| 20260505013106 | 23 | 174 | 1.6 | 14.5 | 0.00 | 0.00 | 0.00 | 70 | 1005.4 |
| 20260505011554 | 23 | 0 | 0.0 | 16.1 | 0.00 | 0.00 | 0.00 | 70 | 1005.4 |
| 20260505010052 | 24 | 0 | 1.6 | 17.7 | 0.00 | 0.00 | 0.00 | 69 | 1005.3 |
| 20260505004557 | 24 | 144 | 3.2 | 14.5 | 0.00 | 0.00 | 0.00 | 68 | 1005.5 |
| 20260505003051 | 25 | 0 | 1.6 | 14.5 | 0.00 | 0.00 | 0.00 | 67 | 1005.5 |
| 20260505001554 | 25 | 0 | 0.0 | 14.5 | 0.00 | 0.00 | 0.00 | 67 | 1005.6 |
| 20260505000113 | 25 | 160 | 3.2 | 16.1 | 0.00 | 0.00 | 0.00 | 65 | 1005.9 |
| 20260504234554 | 26 | 190 | 3.2 | 19.3 | 0.00 | 0.00 | 0.00 | 62 | 1005.9 |
| 20260504233055 | 26 | 223 | 4.8 | 29.0 | 0.00 | 0.00 | 0.00 | 61 | 1006.0 |
| 20260504231553 | 26 | 223 | 3.2 | 19.3 | 0.00 | 0.00 | 0.00 | 61 | 1006.1 |
| 20260504230105 | 26 | 225 | 3.2 | 17.7 | 0.00 | 0.00 | 0.00 | 60 | 1006.1 |
| 20260504224552 | 26 | 120 | 3.2 | 24.1 | 0.00 | 0.00 | 0.00 | 59 | 1006.5 |
| 20260504223056 | 27 | 153 | 3.2 | 22.5 | 0.00 | 0.00 | 0.00 | 58 | 1006.4 |
| 20260504221603 | 27 | 118 | 4.8 | 27.4 | 0.00 | 0.00 | 0.00 | 58 | 1006.6 |
| 20260504220059 | 27 | 142 | 3.2 | 19.3 | 0.00 | 0.00 | 0.00 | 58 | 1006.6 |
| 20260504214558 | 27 | 219 | 4.8 | 25.7 | 0.00 | 0.00 | 0.00 | 57 | 1006.8 |
| 20260504213105 | 27 | 176 | 6.4 | 27.4 | 0.00 | 0.00 | 0.00 | 57 | 1007.0 |
| 20260504211553 | 27 | 173 | 6.4 | 32.2 | 0.00 | 0.00 | 0.00 | 56 | 1007.1 |
| 20260504210055 | 28 | 114 | 4.8 | 24.1 | 0.00 | 0.00 | 0.00 | 56 | 1007.4 |
| 20260504204600 | 28 | 217 | 6.4 | 30.6 | 0.00 | 0.00 | 0.00 | 55 | 1007.7 |
| 20260504203101 | 28 | 196 | 1.6 | 24.1 | 0.00 | 0.00 | 0.00 | 57 | 1007.9 |
| 20260504201554 | 28 | 149 | 6.4 | 27.4 | 0.00 | 0.00 | 0.00 | 54 | 1008.3 |
| 20260504200056 | 27 | 185 | 3.2 | 24.1 | 0.00 | 0.00 | 0.00 | 57 | 1008.7 |
| 20260504194553 | 27 | 150 | 6.4 | 25.7 | 0.00 | 0.00 | 0.00 | 55 | 1008.9 |
| 20260504193054 | 27 | 92 | 6.4 | 24.1 | 0.00 | 0.00 | 0.00 | 56 | 1009.1 |
| 20260504191604 | 27 | 123 | 4.8 | 20.9 | 0.00 | 0.00 | 0.00 | 57 | 1009.5 |
| 20260504184555 | 26 | 194 | 6.4 | 19.3 | 0.00 | 0.00 | 0.00 | 59 | 1009.8 |
| 20260504183059 | 26 | 0 | 6.4 | 33.8 | 0.00 | 0.00 | 0.00 | 58 | 1009.9 |
| 20260504181603 | 26 | 172 | 8.0 | 20.9 | 0.00 | 0.00 | 0.00 | 58 | 1010.2 |
| 20260504180114 | 25 | 205 | 8.0 | 20.9 | 0.00 | 0.00 | 0.00 | 60 | 1010.5 |
| 20260504174556 | 25 | 115 | 4.8 | 30.6 | 0.00 | 0.00 | 0.00 | 59 | 1010.7 |
| 20260504173055 | 25 | 144 | 6.4 | 22.5 | 0.00 | 0.00 | 0.00 | 60 | 1010.9 |
| 20260504171555 | 24 | 215 | 4.8 | 32.2 | 0.00 | 0.00 | 0.00 | 61 | 1010.9 |
| 20260504140104 | 18 | 227 | 9.7 | 32.2 | 0.00 | 0.00 | 0.00 | 73 | 1012.5 |
| 20260504081555 | 15 | 0 | 0.0 | 8.0 | 0.00 | 0.00 | 0.00 | 74 | 1013.7 |
| 20260504080111 | 15 | 0 | 0.0 | 9.7 | 0.00 | 0.00 | 0.00 | 74 | 1013.8 |